Tracking 22124 objects as of 25-Jan-2021
HD Live streaming from Space Station
objects crossing your sky now

INTELSAT 6B (PAS 6B)

Track INTELSAT 6B (PAS 6B) now!
INTELSAT 6B (PAS 6B) is classified as:


NORAD ID: 25585
Int'l Code: 1998-075A
Perigee: 36,059.7 km
Apogee: 36,161.7 km
Inclination: 9.3 °
Period: 1,452.3 minutes
Semi major axis: 42481 km
RCS: 21.1435 m2 (large)
Launch date: December 22, 1998
Source: United States (US)
Launch site: FRENCH GUIANA (FRGUI)

voice and video communcations; 32 Ku-band; South America.
aabbcc
Your satellite tracking list
Your tracking list is empty




NASA's NSSDC Master Catalog

Two Line Element Set (TLE):
1 25585U 98075A   21024.52057865 -.00000131  00000-0  00000-0 0  9997
2 25585   9.2749  43.5001 0012006 114.6376 257.9511  0.99151703 80461
Source of the keplerian elements: AFSPC